Wind_Speed
47 48 47 44 43 43 44 45 44 44 45 47 46 43 40 41 41 39 38 37 36 36 36 35 34 34 34 33 33 33 33 33 32 32 32 32 32 32 32 32 32 32 32 32
48 49 44 42 43 44 45 45 44 44 45 48 49 47 44 43 42 42 40 39 39 39 38 37 36 36 35 35 34 34 34 34 33 33 33 33 33 32 32 32 32 32 33 33
48 45 43 45 45 45 45 44 43 43 45 48 51 49 45 43 43 43 42 42 42 41 40 39 38 37 36 36 35 35 35 34 34 34 34 34 33 33 33 33 33 33 33 34
50 47 46 46 46 45 45 42 43 44 46 47 50 51 44 41 40 41 42 43 42 41 40 39 39 38 37 37 36 36 35 34 34 34 34 34 34 34 34 34 34 34 34 35
50 48 47 46 44 43 43 43 44 45 47 49 48 52 46 39 37 39 41 42 42 41 40 39 38 38 37 37 36 35 35 35 34 34 34 34 34 34 34 34 34 35 35 35
50 49 48 46 45 44 44 44 45 46 48 50 47 49 48 39 36 37 39 41 41 41 40 40 38 37 36 36 35 35 34 34 34 34 34 34 34 35 35 35 36 36 36 36
51 50 48 47 46 45 45 44 44 46 47 49 46 46 47 41 37 36 37 39 39 39 39 38 38 37 37 36 35 35 35 35 35 35 35 34 35 35 36 36 36 36 37 37
50 50 47 46 45 44 43 43 44 45 46 46 46 45 42 40 36 34 35 37 38 38 37 37 37 37 36 36 36 35 34 35 34 34 34 34 35 35 35 36 36 37 38 38
48 48 46 45 44 44 45 45 43 45 46 47 48 44 39 35 33 33 34 35 36 36 35 35 36 36 35 35 35 34 34 35 34 34 35 35 35 35 36 36 37 37 38 38
47 47 46 45 45 46 46 45 45 46 47 47 46 42 36 32 32 33 33 33 33 34 34 34 34 34 35 35 35 35 35 35 35 35 35 35 35 35 35 36 37 37 38 39
47 48 48 48 48 46 46 46 46 47 48 47 45 41 34 31 31 31 31 31 31 32 33 33 33 33 33 34 34 34 34 34 34 34 35 35 34 35 36 36 38 38 39 40
47 48 50 48 47 46 47 46 45 47 46 45 44 42 35 31 31 31 31 31 31 32 32 33 33 33 33 33 33 33 34 34 33 34 34 34 34 35 36 37 38 39 40 41
46 49 50 50 49 48 48 47 46 45 45 46 44 40 35 32 31 31 30 31 31 32 32 33 33 33 33 32 32 33 33 33 33 33 33 34 34 36 37 38 39 40 41 42
47 49 50 49 47 46 45 44 44 45 46 44 41 37 35 32 31 31 31 32 32 33 33 32 32 32 32 32 32 32 33 33 33 33 34 34 35 36 37 39 40 41 42 44
48 49 49 48 48 47 46 44 44 45 44 43 39 38 34 33 33 33 33 32 32 32 33 32 32 32 33 33 33 33 33 34 33 34 34 35 36 37 38 39 41 42 43 45
48 48 48 49 48 48 47 46 44 43 42 41 40 36 32 33 34 34 33 32 31 31 32 33 33 34 34 33 33 33 33 33 34 35 35 36 37 38 39 41 42 43 44 45
48 48 48 48 47 48 49 45 43 42 40 39 38 32 32 33 33 33 33 32 31 31 32 32 33 33 33 33 33 33 34 34 35 35 36 37 38 39 41 42 43 44 45 46
48 48 49 48 48 50 45 41 41 41 39 38 37 34 33 32 32 33 33 32 32 31 32 32 32 33 32 33 33 34 35 35 36 36 37 38 39 41 43 43 44 45 45 46
48 48 49 49 50 49 45 41 38 38 38 36 35 33 32 33 33 32 31 31 31 31 31 31 32 32 32 33 34 35 36 36 37 38 38 39 41 43 43 44 44 45 45 46
49 49 49 48 49 49 43 39 37 37 37 34 33 32 32 33 33 29 30 31 31 31 32 32 32 31 32 33 34 35 36 37 37 38 40 41 42 43 43 43 44 44 45 46
50 49 49 48 47 46 44 40 38 37 33 31 32 32 32 32 30 29 30 31 31 31 31 31 32 32 33 34 34 35 35 36 37 39 40 41 42 43 43 43 43 45 46 47
49 48 48 48 49 46 43 41 38 34 33 31 30 31 31 31 31 30 30 30 30 30 31 31 31 32 32 33 34 34 35 36 38 39 40 41 41 42 42 43 44 45 46 47
49 47 47 47 45 42 40 38 36 35 33 32 31 31 31 31 31 31 30 30 30 29 30 30 31 31 32 33 33 34 35 36 37 38 39 40 41 41 42 43 44 45 46 47
48 46 46 45 44 42 40 38 37 35 33 32 31 30 30 31 30 30 30 30 30 30 30 30 31 32 32 33 33 34 35 36 37 37 38 39 40 41 42 43 44 45 47 49
47 45 44 43 41 40 40 38 36 35 34 32 31 30 30 30 30 30 30 30 30 30 30 31 31 32 33 33 34 35 35 36 36 37 38 39 40 41 42 43 45 47 48 50
47 45 43 41 39 39 38 37 37 36 34 33 32 31 30 30 30 30 30 30 30 31 31 31 32 32 33 33 34 34 35 36 37 38 39 39 40 41 43 44 46 47 49 51
Wind_Direction
237 238 239 241 242 242 241 241 241 242 244 246 247 247 246 249 252 253 254 256 257 259 260 261 263 264 266 268 270 271 273 274 276 276 276 275 274 274 274 275 276 278 280 282
238 239 240 240 240 241 242 243 243 244 246 248 248 248 247 249 253 255 255 256 257 259 261 262 263 264 265 267 268 270 271 273 274 274 274 274 274 274 274 275 276 278 280 281
239 240 240 240 241 242 242 244 245 246 246 249 250 249 249 250 253 255 257 257 258 260 261 262 263 264 265 266 267 268 270 271 272 273 273 274 273 273 274 274 275 278 279 281
238 237 237 238 239 241 243 244 246 247 247 249 252 253 249 251 253 256 257 258 259 260 261 262 263 263 264 264 265 267 268 269 270 271 272 272 272 273 274 275 277 279 280 282
238 239 239 240 241 243 245 245 246 247 249 250 251 256 252 251 252 255 257 258 259 260 261 261 262 262 262 263 264 265 266 268 269 270 270 271 272 273 275 276 277 279 281 282
237 236 237 237 238 239 242 244 245 248 250 251 252 257 257 254 253 254 257 259 260 260 260 260 260 261 262 262 262 264 265 266 267 268 269 271 272 274 275 276 278 279 281 282
236 237 237 237 237 238 241 244 247 249 250 254 255 256 259 260 257 256 257 258 259 260 260 259 259 260 261 261 261 263 264 265 266 267 269 270 272 274 276 277 278 280 282 284
238 239 238 239 240 241 242 245 248 252 254 256 255 255 257 260 260 258 256 256 258 258 259 259 259 260 260 261 261 262 262 263 265 266 268 270 272 274 276 276 278 280 283 285
237 239 238 238 239 240 240 243 247 251 253 255 255 256 256 260 261 259 257 257 257 257 258 259 259 259 260 260 260 260 261 262 264 265 268 270 273 274 274 277 279 281 283 286
235 238 237 236 236 236 238 240 242 246 250 254 256 257 257 258 259 259 258 257 256 256 257 258 258 258 258 258 259 260 261 262 264 266 268 270 272 273 275 277 279 281 283 285
232 234 236 235 234 236 237 239 242 246 249 254 257 258 257 259 259 259 259 259 257 256 256 256 256 257 257 258 259 260 260 262 264 265 267 269 270 272 275 277 279 281 284 287
229 232 235 235 235 235 237 239 241 244 248 252 256 257 257 259 259 259 259 258 257 256 255 255 256 257 257 257 258 259 260 262 264 265 267 269 271 274 276 278 280 282 285 287
227 229 231 233 233 233 235 236 239 243 247 250 252 255 257 257 258 258 257 256 255 255 255 256 257 257 257 257 258 259 260 262 264 266 269 271 272 274 276 279 282 284 286 288
227 230 232 234 236 237 237 238 240 243 245 249 252 256 258 258 256 255 255 254 254 255 256 257 258 258 258 258 258 260 261 263 266 268 270 272 273 275 277 280 283 284 286 289
227 230 231 232 235 237 237 238 239 242 245 248 251 252 252 255 255 254 254 254 255 255 256 257 258 258 258 259 260 261 263 265 266 268 270 272 274 276 279 281 283 285 287 289
227 230 230 232 233 236 236 236 238 240 243 246 248 249 251 253 253 253 255 256 257 256 256 257 258 259 259 259 261 262 263 264 266 268 270 272 276 278 280 283 284 286 287 289
227 228 230 232 233 236 236 235 238 241 243 246 248 250 251 251 252 254 255 257 258 257 257 258 259 260 259 260 261 263 264 266 268 269 271 274 277 279 281 283 285 286 287 289
225 227 229 231 233 236 235 235 238 242 243 246 248 249 251 252 252 253 255 257 258 257 257 257 258 259 260 261 262 264 267 269 269 271 273 275 277 279 282 284 285 286 287 289
223 225 228 231 234 236 235 236 239 242 243 244 247 247 249 251 252 254 257 258 258 257 256 257 259 260 261 262 264 266 268 269 270 272 274 275 278 280 282 283 284 286 288 290
223 225 227 230 234 235 234 236 238 240 241 241 245 247 249 252 253 255 256 257 258 258 259 260 260 261 262 263 266 267 269 270 271 273 274 277 279 281 282 283 285 286 288 289
224 225 227 230 233 234 234 235 237 240 242 242 244 247 249 251 254 254 254 256 258 260 261 261 261 262 263 265 267 268 270 271 273 274 276 278 280 281 282 284 285 287 288 290
223 226 228 230 232 233 234 236 237 240 241 242 243 245 248 251 253 254 255 257 259 260 261 261 262 263 265 267 268 270 271 273 275 277 278 279 280 282 283 285 286 288 289 290
223 226 228 230 232 234 235 237 237 238 240 243 245 246 249 251 253 255 256 257 258 260 260 261 263 266 267 268 270 272 274 276 277 279 279 280 281 283 284 286 287 288 289 291
223 225 226 227 228 230 233 236 238 239 240 242 245 247 249 251 253 255 256 257 258 259 261 263 265 267 269 270 272 274 276 277 279 280 281 282 283 285 286 287 288 289 291 292
222 224 224 226 228 229 231 234 237 238 239 240 243 245 248 251 254 255 256 257 259 260 263 265 267 269 270 271 273 275 277 279 280 282 283 284 285 286 287 288 290 291 292 293
222 223 224 225 227 230 231 231 234 237 238 240 243 246 249 252 254 256 258 259 261 264 266 267 268 269 271 273 275 276 278 280 282 283 285 285 286 288 289 290 291 293 294 295
Height
5754 5759 5764 5771 5774 5777 5779 5782 5785 5788 5789 5790 5792 5796 5801 5801 5803 5805 5807 5808 5809 5810 5810 5810 5811 5811 5811 5810 5810 5810 5809 5808 5808 5807 5806 5805 5804 5804 5803 5802 5801 5799 5798 5796
5744 5749 5758 5760 5763 5765 5769 5772 5776 5779 5780 5780 5782 5785 5791 5793 5794 5796 5798 5799 5800 5801 5801 5802 5803 5803 5803 5802 5802 5801 5801 5801 5800 5800 5799 5798 5797 5797 5796 5795 5793 5792 5791 5789
5735 5744 5747 5749 5752 5755 5759 5763 5767 5769 5769 5769 5771 5776 5782 5785 5786 5787 5788 5789 5790 5792 5792 5793 5794 5794 5794 5794 5794 5793 5793 5792 5792 5791 5791 5790 5790 5789 5788 5787 5786 5785 5783 5782
5723 5731 5735 5738 5742 5746 5750 5755 5756 5758 5759 5760 5762 5763 5773 5776 5777 5777 5778 5779 5780 5782 5783 5784 5784 5785 5785 5785 5785 5785 5785 5784 5784 5783 5783 5782 5782 5781 5780 5779 5778 5777 5775 5774
5714 5721 5725 5729 5736 5738 5742 5744 5745 5747 5748 5750 5753 5752 5761 5768 5769 5768 5768 5769 5770 5772 5773 5774 5775 5775 5776 5776 5776 5776 5776 5776 5776 5775 5775 5774 5774 5773 5773 5771 5770 5769 5767 5765
5704 5709 5713 5720 5725 5728 5730 5733 5735 5736 5737 5740 5746 5744 5748 5758 5760 5759 5759 5759 5760 5762 5763 5764 5765 5766 5766 5767 5767 5767 5767 5767 5767 5767 5766 5766 5766 5765 5764 5763 5762 5761 5759 5757
5692 5697 5703 5709 5714 5718 5721 5724 5726 5726 5728 5731 5735 5736 5740 5745 5749 5749 5750 5750 5751 5752 5753 5754 5755 5756 5757 5758 5758 5758 5759 5759 5759 5758 5758 5758 5757 5757 5756 5755 5754 5752 5751 5749
5682 5687 5694 5700 5705 5709 5713 5715 5718 5720 5721 5723 5723 5726 5733 5735 5737 5738 5739 5740 5741 5742 5743 5745 5746 5747 5748 5748 5749 5749 5750 5750 5750 5750 5750 5749 5749 5748 5747 5746 5745 5744 5742 5740
5673 5679 5685 5691 5696 5699 5701 5704 5709 5709 5709 5711 5712 5717 5724 5726 5727 5728 5729 5730 5731 5733 5734 5735 5736 5737 5738 5739 5740 5740 5741 5741 5741 5741 5741 5741 5740 5740 5739 5738 5736 5734 5733 5730
5663 5668 5672 5678 5682 5686 5691 5694 5696 5697 5699 5700 5704 5709 5715 5718 5718 5719 5719 5721 5722 5724 5725 5726 5727 5728 5729 5730 5731 5731 5732 5732 5732 5732 5732 5732 5731 5731 5730 5728 5727 5725 5723 5721
5651 5656 5660 5664 5669 5676 5681 5684 5686 5689 5691 5694 5696 5702 5706 5709 5709 5709 5710 5711 5713 5714 5715 5717 5718 5719 5720 5721 5722 5722 5723 5723 5723 5723 5723 5723 5722 5722 5721 5719 5718 5716 5713 5711
5639 5643 5647 5654 5661 5665 5668 5672 5676 5679 5682 5685 5687 5694 5696 5699 5700 5700 5701 5702 5704 5705 5706 5708 5709 5710 5711 5712 5713 5714 5714 5714 5714 5714 5714 5714 5713 5712 5711 5710 5708 5706 5703 5701
5627 5630 5635 5640 5647 5652 5656 5662 5666 5670 5672 5673 5677 5685 5687 5690 5690 5691 5692 5694 5695 5696 5697 5699 5700 5701 5702 5703 5704 5705 5705 5705 5706 5705 5705 5705 5704 5703 5702 5700 5698 5696 5693 5690
5615 5619 5625 5632 5639 5644 5648 5653 5657 5659 5661 5665 5670 5676 5678 5680 5681 5682 5683 5685 5686 5688 5689 5690 5691 5692 5693 5694 5695 5696 5696 5696 5696 5696 5696 5695 5695 5693 5692 5690 5688 5686 5683 5680
5602 5608 5616 5622 5627 5632 5637 5642 5645 5648 5653 5657 5662 5665 5669 5670 5671 5672 5673 5675 5677 5679 5680 5682 5683 5684 5685 5685 5686 5687 5687 5687 5687 5687 5687 5686 5685 5683 5682 5680 5677 5675 5672 5669
5592 5599 5605 5610 5616 5620 5624 5630 5634 5639 5644 5648 5651 5655 5660 5660 5661 5662 5664 5666 5668 5670 5671 5672 5674 5675 5676 5676 5677 5678 5678 5678 5678 5678 5677 5676 5675 5673 5671 5669 5667 5664 5661 5657
5583 5590 5595 5601 5606 5607 5612 5622 5626 5631 5635 5639 5642 5649 5650 5650 5652 5653 5655 5657 5659 5661 5662 5663 5665 5666 5666 5667 5668 5668 5669 5669 5668 5668 5667 5666 5665 5663 5661 5658 5656 5653 5649 5646
5572 5579 5584 5589 5594 5595 5609 5614 5618 5621 5626 5630 5634 5637 5639 5641 5643 5644 5646 5648 5650 5652 5653 5654 5655 5656 5657 5658 5658 5659 5659 5659 5659 5658 5657 5656 5654 5652 5650 5647 5644 5641 5638 5634
5562 5568 5573 5578 5582 5588 5598 5605 5610 5613 5617 5622 5624 5627 5630 5631 5632 5635 5638 5639 5641 5642 5644 5645 5646 5647 5648 5648 5649 5649 5649 5649 5648 5648 5646 5645 5643 5641 5638 5636 5633 5629 5626 5622
5551 5557 5564 5568 5573 5579 5592 5597 5600 5603 5607 5613 5615 5618 5620 5621 5624 5629 5629 5630 5632 5633 5635 5636 5637 5638 5638 5639 5639 5639 5639 5638 5638 5637 5635 5634 5632 5629 5627 5624 5621 5618 5614 5610
5539 5545 5551 5558 5563 5571 5581 5586 5590 5595 5603 5605 5606 5609 5611 5613 5617 5619 5620 5621 5623 5624 5626 5627 5628 5628 5629 5629 5629 5629 5628 5628 5627 5625 5624 5622 5620 5618 5615 5612 5609 5606 5602 5598
5530 5536 5542 5548 5554 5565 5572 5577 5582 5588 5592 5595 5597 5599 5602 5605 5607 5609 5611 5612 5614 5615 5616 5617 5618 5619 5619 5619 5619 5619 5618 5617 5616 5614 5613 5611 5608 5606 5603 5600 5597 5593 5589 5585
5520 5528 5535 5541 5551 5558 5563 5568 5573 5577 5582 5585 5588 5591 5594 5596 5598 5600 5602 5603 5605 5606 5607 5608 5609 5609 5609 5609 5609 5608 5607 5606 5605 5603 5601 5599 5597 5594 5591 5588 5584 5580 5576 5572
5511 5518 5524 5531 5539 5546 5552 5557 5562 5568 5572 5575 5579 5582 5585 5587 5589 5591 5593 5594 5596 5597 5598 5599 5599 5599 5599 5599 5598 5598 5597 5595 5594 5592 5590 5588 5585 5582 5579 5576 5572 5568 5563 5559
5501 5508 5514 5522 5530 5536 5541 5547 5553 5558 5562 5566 5570 5573 5575 5578 5580 5582 5584 5585 5587 5588 5589 5589 5589 5589 5589 5588 5588 5587 5586 5584 5583 5581 5578 5576 5573 5570 5567 5563 5559 5555 5550 5545
5493 5500 5508 5515 5523 5528 5534 5538 5543 5548 5552 5557 5560 5563 5566 5569 5571 5573 5574 5576 5577 5578 5579 5579 5579 5579 5579 5578 5577 5576 5575 5573 5571 5569 5566 5564 5561 5558 5554 5550 5546 5541 5537 5531